Hoolehua, HI

3:47 AM HST on August 27, 2016 (GMT -1000)
Molokai

Weather History for PHMK - July, 2013

Change the Weather History Date:

Thursday, July 25, 2013

  Actual Average Record
Temperature  
Mean Temperature 76 °F -  
Max Temperature 82 °F 84 °F 91 °F (1987)
Min Temperature 70 °F 69 °F 59 °F (1989)
Cooling Degree Days 11    
Growing Degree Days 26 (Base 50)    
Moisture  
Dew Point 68 °F    
Average Humidity 78    
Maximum Humidity 90    
Minimum Humidity 60    
Precipitation  
Precipitation 0.00 in - - ()
Sea Level Pressure  
Sea Level Pressure 29.98 in    
Wind  
Wind Speed 10 mph (NE)    
Max Wind Speed 17 mph    
Max Gust Speed 28 mph    
Visibility 10 miles    
Events      
Averages and records for this station are not official NWS values.
T = Trace of Precipitation, MM = Missing Value Source: NWS Daily Summary

Daily Weather History Graph

Daily Weather History Graph

Search for Another Location

Airport or City:

Trip Planner

Search our weather history database for the weather conditions in past years. The results will help you decide how hot, cold, wet, or windy it might be!

Date:

Astronomy

Jul. 25, 2013 Rise Set
Actual Time 5:59 AM HST 7:10 PM HST
Civil Twilight 5:35 AM HST 7:34 PM HST
Nautical Twilight 5:07 AM HST 8:02 PM HST
Astronomical Twilight 4:37 AM HST 8:31 PM HST
Moon 9:36 PM HST (7/25) 9:06 AM HST (7/25)
Length of Visible Light 13h 58m
Length of Day
13h 10m
Waning Gibbous, 86% of the Moon is Illuminated
Jul 25
Waning Gibbous
Jul 29
Last Quarter
Aug 6
New
Aug 14
First Quarter
Aug 20
Full

Hourly Weather History & Observations

Time (HST) Temp. Heat Index Dew Point Humidity Pressure Visibility Wind Dir Wind Speed Gust Speed Precip Events Conditions
12:54 AM 71.1 °F - 66.9 °F 87% 29.97 in 10.0 mi ENE 9.2 mph - N/A   Clear
1:54 AM 71.1 °F - 68.0 °F 90% 29.95 in 10.0 mi NNE 8.1 mph 18.4 mph N/A   Clear
2:54 AM 70.0 °F - 66.0 °F 87% 29.95 in 10.0 mi East 4.6 mph - N/A   Clear
3:54 AM 70.0 °F - 66.9 °F 90% 29.95 in 10.0 mi NE 5.8 mph - N/A   Clear
4:54 AM 71.1 °F - 66.0 °F 84% 29.96 in 10.0 mi NE 4.6 mph - N/A   Clear
5:54 AM 71.1 °F - 68.0 °F 90% 29.97 in 10.0 mi NE 6.9 mph - N/A   Mostly Cloudy
6:54 AM 73.0 °F - 68.0 °F 84% 29.99 in 10.0 mi NNE 11.5 mph 17.3 mph N/A   Partly Cloudy
7:54 AM 75.9 °F - 68.0 °F 76% 30.00 in 10.0 mi NE 11.5 mph 19.6 mph N/A   Partly Cloudy
8:54 AM 77.0 °F - 68.0 °F 74% 30.00 in 10.0 mi NE 16.1 mph 21.9 mph N/A   Partly Cloudy
9:54 AM 79.0 °F - 66.9 °F 66% 29.99 in 10.0 mi NNE 16.1 mph 21.9 mph N/A   Clear
10:54 AM 80.1 °F 83.2 °F 70.0 °F 71% 29.99 in 10.0 mi NE 15.0 mph 24.2 mph N/A   Scattered Clouds
11:54 AM 81.0 °F 84.4 °F 70.0 °F 69% 29.98 in 10.0 mi NNE 12.7 mph 24.2 mph N/A   Scattered Clouds
12:54 PM 82.0 °F 84.9 °F 68.0 °F 62% 29.97 in 10.0 mi NNE 12.7 mph 20.7 mph N/A   Partly Cloudy
1:54 PM 82.0 °F 84.9 °F 68.0 °F 62% 29.96 in 10.0 mi NNE 13.8 mph 23.0 mph N/A   Clear
2:54 PM 82.9 °F 85.8 °F 68.0 °F 60% 29.94 in 10.0 mi ENE 17.3 mph 21.9 mph N/A   Partly Cloudy
3:54 PM 79.0 °F - 68.0 °F 69% 29.94 in 10.0 mi NNE 16.1 mph 27.6 mph N/A   Partly Cloudy
4:54 PM 79.0 °F - 68.0 °F 69% 29.94 in 10.0 mi NE 16.1 mph 27.6 mph N/A   Clear
5:54 PM 75.9 °F - 68.0 °F 76% 29.96 in 10.0 mi NE 13.8 mph 25.3 mph N/A   Clear
6:54 PM 73.9 °F - 68.0 °F 82% 29.98 in 10.0 mi NNE 10.4 mph 18.4 mph N/A   Clear
7:54 PM 73.0 °F - 69.1 °F 87% 29.98 in 10.0 mi NE 13.8 mph 24.2 mph N/A   Clear
8:54 PM 73.0 °F - 69.1 °F 87% 30.00 in 10.0 mi NE 8.1 mph - N/A   Clear
9:54 PM 73.0 °F - 68.0 °F 84% 30.02 in 10.0 mi NE 9.2 mph - N/A   Mostly Cloudy
10:54 PM 72.0 °F - 68.0 °F 87% 30.02 in 10.0 mi NE 9.2 mph - N/A   Partly Cloudy
11:54 PM 72.0 °F - 66.9 °F 84% 30.01 in 10.0 mi ENE 9.2 mph - N/A   Mostly Cloudy